"Sample Date","Sample Time","Sample Value","Units","Flow Rate","Number Channels","Micron Size 0","Counts/Channel 0","Micron Size 1","Counts/Channel 1","Micron Size 2","Counts/Channel 2","Micron Size 3","Counts/Channel 3","Micron Size 4","Counts/Channel 4","Micron Size 5","Counts/Channel 5","Micron Size 6","Counts/Channel 6","Micron Size 7","Counts/Channel 7","Micron Size 8","Counts/Channel 8","Micron Size 9","Counts/Channel 9","Micron Size 10","Counts/Channel 10","Micron Size 11","Counts/Channel 11","Micron Size 12","Counts/Channel 12","Micron Size 13","Counts/Channel 13","Micron Size 14","Counts/Channel 14","Micron Size 15","Counts/Channel 15","Micron Size 16","Counts/Channel 16","Micron Size 17","Counts/Channel 17","Micron Size 18","Counts/Channel 18","Micron Size 19","Counts/Channel 19","Micron Size 20","Counts/Channel 20","Micron Size 21","Counts/Channel 21","Micron Size 22","Counts/Channel 22","Micron Size 23","Counts/Channel 23","Micron Size 24","Counts/Channel 24","Micron Size 25","Counts/Channel 25","Micron Size 26","Counts/Channel 26","Micron Size 27","Counts/Channel 27","Micron Size 28","Counts/Channel 28","Micron Size 29","Counts/Channel 29","Micron Size 30","Counts/Channel 30","Micron Size 31","Counts/Channel 31"
"05/05/08","11:00:02",156.000,"cc",28395.104,6,0.100,128.000,0.200,24.000,0.300,4.000,0.500,0,1.000,0,5.000,0
"05/05/08","11:00:08",144.000,"cc",28300.141,6,0.100,122.000,0.200,20.000,0.300,2.000,0.500,0,1.000,0,5.000,0
"05/05/08","11:00:14",135.000,"cc",28302.885,6,0.100,115.000,0.200,20.000,0.300,0,0.500,0,1.000,0,5.000,0
"05/05/08","11:00:20",148.000,"cc",28349.891,6,0.100,122.000,0.200,26.000,0.300,0,0.500,0,1.000,0,5.000,0
"05/05/08","11:00:26",135.000,"cc",28328.998,6,0.100,105.000,0.200,30.000,0.300,0,0.500,0,1.000,0,5.000,0
"05/05/08","11:00:32",145.000,"cc",28308.979,6,0.100,126.000,0.200,19.000,0.300,0,0.500,0,1.000,0,5.000,0
"05/05/08","11:00:38",140.000,"cc",28338.570,6,0.100,108.000,0.200,29.000,0.300,3.000,0.500,0,1.000,0,5.000,0
"05/05/08","11:00:44",142.000,"cc",28316.078,6,0.100,125.000,0.200,16.000,0.300,1.000,0.500,0,1.000,0,5.000,0
"05/05/08","11:00:50",141.000,"cc",28275.283,6,0.100,110.000,0.200,30.000,0.300,1.000,0.500,0,1.000,0,5.000,0
"05/05/08","11:00:56",145.000,"cc",28368.652,6,0.100,118.000,0.200,25.000,0.300,2.000,0.500,0,1.000,0,5.000,0
"05/05/08","11:01:02",154.000,"cc",28324.684,6,0.100,126.000,0.200,26.000,0.300,2.000,0.500,0,1.000,0,5.000,0
"05/05/08","11:01:08",131.000,"cc",28290.746,6,0.100,111.000,0.200,18.000,0.300,2.000,0.500,0,1.000,0,5.000,0
"05/05/08","11:01:14",143.000,"cc",28302.334,6,0.100,118.000,0.200,23.000,0.300,2.000,0.500,0,1.000,0,5.000,0
"05/05/08","11:01:20",153.000,"cc",28322.959,6,0.100,117.000,0.200,33.000,0.300,3.000,0.500,0,1.000,0,5.000,0
"05/05/08","11:01:26",125.000,"cc",28301.029,6,0.100,96.000,0.200,27.000,0.300,2.000,0.500,0,1.000,0,5.000,0
"05/05/08","11:01:32",143.000,"cc",28301.666,6,0.100,109.000,0.200,30.000,0.300,2.000,0.500,2.000,1.000,0,5.000,0
"05/05/08","11:01:38",151.000,"cc",28267.832,6,0.100,114.000,0.200,32.000,0.300,4.000,0.500,1.000,1.000,0,5.000,0
"05/05/08","11:01:44",153.000,"cc",28370.303,6,0.100,125.000,0.200,26.000,0.300,2.000,0.500,0,1.000,0,5.000,0
"05/05/08","11:01:50",142.000,"cc",28333.857,6,0.100,115.000,0.200,26.000,0.300,1.000,0.500,0,1.000,0,5.000,0
"05/05/08","11:01:56",146.000,"cc",28290.320,6,0.100,117.000,0.200,28.000,0.300,1.000,0.500,0,1.000,0,5.000,0
"05/05/08","11:02:02",148.000,"cc",28346.500,6,0.100,117.000,0.200,30.000,0.300,0,0.500,1.000,1.000,0,5.000,0
"05/05/08","11:02:08",136.000,"cc",28275.498,6,0.100,112.000,0.200,24.000,0.300,0,0.500,0,1.000,0,5.000,0
"05/05/08","11:02:14",135.000,"cc",28372.104,6,0.100,112.000,0.200,20.000,0.300,3.000,0.500,0,1.000,0,5.000,0
"05/05/08","11:02:20",174.000,"cc",28302.088,6,0.100,136.000,0.200,36.000,0.300,2.000,0.500,0,1.000,0,5.000,0
"05/05/08","11:02:26",139.000,"cc",28289.121,6,0.100,114.000,0.200,23.000,0.300,1.000,0.500,1.000,1.000,0,5.000,0
"05/05/08","11:02:32",159.000,"cc",28356.481,6,0.100,123.000,0.200,34.000,0.300,1.000,0.500,0,1.000,1.000,5.000,0
"05/05/08","11:02:38",141.000,"cc",28291.131,6,0.100,111.000,0.200,29.000,0.300,1.000,0.500,0,1.000,0,5.000,0
"05/05/08","11:02:44",123.000,"cc",28336.102,6,0.100,100.000,0.200,23.000,0.300,0,0.500,0,1.000,0,5.000,0
"05/05/08","11:02:50",145.000,"cc",28313.465,6,0.100,113.000,0.200,29.000,0.300,2.000,0.500,1.000,1.000,0,5.000,0
"05/05/08","11:02:56",162.000,"cc",28269.990,6,0.100,132.000,0.200,28.000,0.300,1.000,0.500,1.000,1.000,0,5.000,0
"05/05/08","11:03:02",144.000,"cc",28291.602,6,0.100,110.000,0.200,32.000,0.300,2.000,0.500,0,1.000,0,5.000,0
"05/05/08","11:03:08",136.000,"cc",28337.299,6,0.100,118.000,0.200,18.000,0.300,0,0.500,0,1.000,0,5.000,0
"05/05/08","11:03:14",146.000,"cc",28315.893,6,0.100,123.000,0.200,23.000,0.300,0,0.500,0,1.000,0,5.000,0
"05/05/08","11:03:20",132.000,"cc",28347.684,6,0.100,103.000,0.200,29.000,0.300,0,0.500,0,1.000,0,5.000,0
"05/05/08","11:03:26",140.000,"cc",28391.365,6,0.100,111.000,0.200,28.000,0.300,1.000,0.500,0,1.000,0,5.000,0
"05/05/08","11:03:32",149.000,"cc",28221.846,6,0.100,120.000,0.200,27.000,0.300,2.000,0.500,0,1.000,0,5.000,0
"05/05/08","11:03:38",160.000,"cc",28311.738,6,0.100,134.000,0.200,25.000,0.300,1.000,0.500,0,1.000,0,5.000,0
"05/05/08","11:03:44",152.000,"cc",28371.654,6,0.100,125.000,0.200,25.000,0.300,1.000,0.500,1.000,1.000,0,5.000,0
"05/05/08","11:03:50",124.000,"cc",28228.311,6,0.100,107.000,0.200,17.000,0.300,0,0.500,0,1.000,0,5.000,0
"05/05/08","11:03:56",133.000,"cc",28359.574,6,0.100,102.000,0.200,31.000,0.300,0,0.500,0,1.000,0,5.000,0
"05/05/08","11:04:02",157.000,"cc",28338.533,6,0.100,130.000,0.200,25.000,0.300,2.000,0.500,0,1.000,0,5.000,0
"05/05/08","11:04:08",145.000,"cc",28291.707,6,0.100,123.000,0.200,20.000,0.300,2.000,0.500,0,1.000,0,5.000,0
"05/05/08","11:04:14",153.000,"cc",28309.857,6,0.100,129.000,0.200,23.000,0.300,1.000,0.500,0,1.000,0,5.000,0
"05/05/08","11:04:20",131.000,"cc",28306.703,6,0.100,110.000,0.200,19.000,0.300,2.000,0.500,0,1.000,0,5.000,0
"05/05/08","11:04:26",148.000,"cc",28345.592,6,0.100,121.000,0.200,24.000,0.300,2.000,0.500,1.000,1.000,0,5.000,0
"05/05/08","11:04:32",133.000,"cc",28316.658,6,0.100,115.000,0.200,18.000,0.300,0,0.500,0,1.000,0,5.000,0
"05/05/08","11:04:38",167.000,"cc",28324.516,6,0.100,132.000,0.200,33.000,0.300,1.000,0.500,1.000,1.000,0,5.000,0
"05/05/08","11:04:44",152.000,"cc",28269.356,6,0.100,125.000,0.200,26.000,0.300,1.000,0.500,0,1.000,0,5.000,0
"05/05/08","11:04:50",147.000,"cc",28335.277,6,0.100,122.000,0.200,22.000,0.300,3.000,0.500,0,1.000,0,5.000,0
"05/05/08","11:04:56",144.000,"cc",28295.936,6,0.100,121.000,0.200,21.000,0.300,2.000,0.500,0,1.000,0,5.000,0
"05/05/08","11:05:02",144.000,"cc",28322.195,6,0.100,123.000,0.200,20.000,0.300,1.000,0.500,0,1.000,0,5.000,0
"05/05/08","11:05:08",142.000,"cc",28338.969,6,0.100,115.000,0.200,24.000,0.300,3.000,0.500,0,1.000,0,5.000,0
"05/05/08","11:05:14",159.000,"cc",28314.613,6,0.100,137.000,0.200,22.000,0.300,0,0.500,0,1.000,0,5.000,0
"05/05/08","11:05:20",141.000,"cc",28277.856,6,0.100,115.000,0.200,23.000,0.300,3.000,0.500,0,1.000,0,5.000,0
"05/05/08","11:05:26",132.000,"cc",28333.461,6,0.100,113.000,0.200,19.000,0.300,0,0.500,0,1.000,0,5.000,0
"05/05/08","11:05:32",143.000,"cc",28321.914,6,0.100,108.000,0.200,32.000,0.300,2.000,0.500,1.000,1.000,0,5.000,0
"05/05/08","11:05:38",122.000,"cc",28341.856,6,0.100,95.000,0.200,22.000,0.300,5.000,0.500,0,1.000,0,5.000,0
"05/05/08","11:05:44",134.000,"cc",28295.688,6,0.100,110.000,0.200,24.000,0.300,0,0.500,0,1.000,0,5.000,0
"05/05/08","11:05:50",155.000,"cc",28328.316,6,0.100,131.000,0.200,22.000,0.300,2.000,0.500,0,1.000,0,5.000,0
"05/05/08","11:05:56",133.000,"cc",28348.178,6,0.100,107.000,0.200,25.000,0.300,0,0.500,1.000,1.000,0,5.000,0
"05/05/08","11:06:02",149.000,"cc",28247.711,6,0.100,120.000,0.200,29.000,0.300,0,0.500,0,1.000,0,5.000,0
"05/05/08","11:06:08",141.000,"cc",28259.000,6,0.100,118.000,0.200,23.000,0.300,0,0.500,0,1.000,0,5.000,0
"05/05/08","11:06:14",144.000,"cc",28385.293,6,0.100,111.000,0.200,31.000,0.300,2.000,0.500,0,1.000,0,5.000,0
"05/05/08","11:06:20",138.000,"cc",28336.201,6,0.100,111.000,0.200,24.000,0.300,2.000,0.500,1.000,1.000,0,5.000,0
"05/05/08","11:06:26",135.000,"cc",28310.193,6,0.100,108.000,0.200,25.000,0.300,2.000,0.500,0,1.000,0,5.000,0
"05/05/08","11:06:32",141.000,"cc",28250.127,6,0.100,110.000,0.200,30.000,0.300,1.000,0.500,0,1.000,0,5.000,0
"05/05/08","11:06:38",140.000,"cc",28329.059,6,0.100,116.000,0.200,22.000,0.300,1.000,0.500,1.000,1.000,0,5.000,0
"05/05/08","11:06:44",171.000,"cc",28371.705,6,0.100,138.000,0.200,31.000,0.300,2.000,0.500,0,1.000,0,5.000,0
"05/05/08","11:06:50",140.000,"cc",28348.129,6,0.100,119.000,0.200,20.000,0.300,0,0.500,1.000,1.000,0,5.000,0
"05/05/08","11:06:56",134.000,"cc",28314.080,6,0.100,109.000,0.200,25.000,0.300,0,0.500,0,1.000,0,5.000,0
"05/05/08","11:07:02",152.000,"cc",28222.953,6,0.100,122.000,0.200,29.000,0.300,1.000,0.500,0,1.000,0,5.000,0
"05/05/08","11:07:08",146.000,"cc",28324.813,6,0.100,116.000,0.200,28.000,0.300,1.000,0.500,1.000,1.000,0,5.000,0
"05/05/08","11:07:14",146.000,"cc",28356.488,6,0.100,118.000,0.200,26.000,0.300,2.000,0.500,0,1.000,0,5.000,0
"05/05/08","11:07:20",139.000,"cc",28305.674,6,0.100,119.000,0.200,19.000,0.300,1.000,0.500,0,1.000,0,5.000,0
"05/05/08","11:07:26",125.000,"cc",28339.672,6,0.100,93.000,0.200,31.000,0.300,1.000,0.500,0,1.000,0,5.000,0
"05/05/08","11:07:32",144.000,"cc",28365.924,6,0.100,124.000,0.200,20.000,0.300,0,0.500,0,1.000,0,5.000,0
"05/05/08","11:07:38",136.000,"cc",28278.904,6,0.100,105.000,0.200,30.000,0.300,1.000,0.500,0,1.000,0,5.000,0
"05/05/08","11:07:44",150.000,"cc",28264.822,6,0.100,133.000,0.200,15.000,0.300,2.000,0.500,0,1.000,0,5.000,0
"05/05/08","11:07:50",122.000,"cc",28314.809,6,0.100,102.000,0.200,19.000,0.300,1.000,0.500,0,1.000,0,5.000,0
"05/05/08","11:07:56",162.000,"cc",28321.678,6,0.100,136.000,0.200,26.000,0.300,0,0.500,0,1.000,0,5.000,0
"05/05/08","11:08:02",170.000,"cc",28280.277,6,0.100,137.000,0.200,33.000,0.300,0,0.500,0,1.000,0,5.000,0
"05/05/08","11:08:08",144.000,"cc",28351.951,6,0.100,118.000,0.200,26.000,0.300,0,0.500,0,1.000,0,5.000,0
"05/05/08","11:08:14",149.000,"cc",28385.801,6,0.100,118.000,0.200,29.000,0.300,2.000,0.500,0,1.000,0,5.000,0
"05/05/08","11:08:20",153.000,"cc",28300.043,6,0.100,126.000,0.200,23.000,0.300,3.000,0.500,1.000,1.000,0,5.000,0
"05/05/08","11:08:26",147.000,"cc",28296.738,6,0.100,125.000,0.200,19.000,0.300,3.000,0.500,0,1.000,0,5.000,0
"05/05/08","11:08:32",164.000,"cc",28293.500,6,0.100,136.000,0.200,28.000,0.300,0,0.500,0,1.000,0,5.000,0
"05/05/08","11:08:38",145.000,"cc",28331.938,6,0.100,125.000,0.200,20.000,0.300,0,0.500,0,1.000,0,5.000,0
"05/05/08","11:08:44",139.000,"cc",28337.080,6,0.100,116.000,0.200,20.000,0.300,2.000,0.500,1.000,1.000,0,5.000,0
"05/05/08","11:08:50",152.000,"cc",28280.729,6,0.100,128.000,0.200,22.000,0.300,1.000,0.500,0,1.000,1.000,5.000,0
"05/05/08","11:08:56",148.000,"cc",28318.697,6,0.100,122.000,0.200,24.000,0.300,1.000,0.500,1.000,1.000,0,5.000,0
"05/05/08","11:09:02",152.000,"cc",28329.440,6,0.100,129.000,0.200,20.000,0.300,2.000,0.500,1.000,1.000,0,5.000,0
"05/05/08","11:09:08",148.000,"cc",28380.818,6,0.100,121.000,0.200,23.000,0.300,3.000,0.500,1.000,1.000,0,5.000,0
"05/05/08","11:09:14",137.000,"cc",28317.402,6,0.100,108.000,0.200,26.000,0.300,2.000,0.500,1.000,1.000,0,5.000,0
"05/05/08","11:09:20",156.000,"cc",28291.039,6,0.100,131.000,0.200,24.000,0.300,1.000,0.500,0,1.000,0,5.000,0
"05/05/08","11:09:26",130.000,"cc",28283.246,6,0.100,107.000,0.200,23.000,0.300,0,0.500,0,1.000,0,5.000,0
"05/05/08","11:09:32",156.000,"cc",28274.316,6,0.100,122.000,0.200,33.000,0.300,0,0.500,1.000,1.000,0,5.000,0
"05/05/08","11:09:38",189.000,"cc",28368.387,6,0.100,158.000,0.200,25.000,0.300,5.000,0.500,1.000,1.000,0,5.000,0
"05/05/08","11:09:44",162.000,"cc",28334.815,6,0.100,140.000,0.200,17.000,0.300,5.000,0.500,0,1.000,0,5.000,0
"05/05/08","11:09:50",137.000,"cc",28320.104,6,0.100,119.000,0.200,16.000,0.300,2.000,0.500,0,1.000,0,5.000,0
"05/05/08","11:09:56",138.000,"cc",28228.398,6,0.100,123.000,0.200,15.000,0.300,0,0.500,0,1.000,0,5.000,0
"05/05/08","11:10:02",166.000,"cc",28341.465,6,0.100,141.000,0.200,23.000,0.300,1.000,0.500,0,1.000,1.000,5.000,0
"05/05/08","11:10:08",145.000,"cc",28340.418,6,0.100,115.000,0.200,28.000,0.300,2.000,0.500,0,1.000,0,5.000,0
"05/05/08","11:10:14",172.000,"cc",28378.678,6,0.100,136.000,0.200,35.000,0.300,1.000,0.500,0,1.000,0,5.000,0
"05/05/08","11:10:20",147.000,"cc",28298.875,6,0.100,125.000,0.200,22.000,0.300,0,0.500,0,1.000,0,5.000,0
"05/05/08","11:10:26",131.000,"cc",28291.275,6,0.100,111.000,0.200,14.000,0.300,6.000,0.500,0,1.000,0,5.000,0
"05/05/08","11:10:32",119.000,"cc",28339.166,6,0.100,95.000,0.200,24.000,0.300,0,0.500,0,1.000,0,5.000,0
"05/05/08","11:10:38",155.000,"cc",28254.703,6,0.100,128.000,0.200,24.000,0.300,3.000,0.500,0,1.000,0,5.000,0
"05/05/08","11:10:44",140.000,"cc",28327.865,6,0.100,109.000,0.200,27.000,0.300,4.000,0.500,0,1.000,0,5.000,0
"05/05/08","11:10:50",147.000,"cc",28329.565,6,0.100,124.000,0.200,22.000,0.300,1.000,0.500,0,1.000,0,5.000,0
"05/05/08","11:10:56",143.000,"cc",28326.732,6,0.100,117.000,0.200,25.000,0.300,1.000,0.500,0,1.000,0,5.000,0
"05/05/08","11:11:02",154.000,"cc",28309.711,6,0.100,128.000,0.200,23.000,0.300,2.000,0.500,1.000,1.000,0,5.000,0
"05/05/08","11:11:08",176.000,"cc",28284.643,6,0.100,149.000,0.200,26.000,0.300,0,0.500,1.000,1.000,0,5.000,0
"05/05/08","11:11:14",163.000,"cc",28293.094,6,0.100,133.000,0.200,26.000,0.300,4.000,0.500,0,1.000,0,5.000,0
"05/05/08","11:11:20",153.000,"cc",28325.094,6,0.100,125.000,0.200,26.000,0.300,2.000,0.500,0,1.000,0,5.000,0
"05/05/08","11:11:26",146.000,"cc",28299.404,6,0.100,124.000,0.200,21.000,0.300,1.000,0.500,0,1.000,0,5.000,0
"05/05/08","11:11:32",163.000,"cc",28328.445,6,0.100,140.000,0.200,23.000,0.300,0,0.500,0,1.000,0,5.000,0
"05/05/08","11:11:38",174.000,"cc",28353.094,6,0.100,133.000,0.200,39.000,0.300,1.000,0.500,1.000,1.000,0,5.000,0
"05/05/08","11:11:44",155.000,"cc",28294.440,6,0.100,119.000,0.200,32.000,0.300,4.000,0.500,0,1.000,0,5.000,0
"05/05/08","11:11:50",159.000,"cc",28342.106,6,0.100,132.000,0.200,24.000,0.300,1.000,0.500,2.000,1.000,0,5.000,0
"05/05/08","11:11:56",147.000,"cc",28315.639,6,0.100,132.000,0.200,14.000,0.300,1.000,0.500,0,1.000,0,5.000,0
"05/05/08","11:12:02",150.000,"cc",28323.080,6,0.100,124.000,0.200,26.000,0.300,0,0.500,0,1.000,0,5.000,0
"05/05/08","11:12:08",150.000,"cc",28295.727,6,0.100,129.000,0.200,21.000,0.300,0,0.500,0,1.000,0,5.000,0
"05/05/08","11:12:14",178.000,"cc",28328.139,6,0.100,140.000,0.200,37.000,0.300,1.000,0.500,0,1.000,0,5.000,0
"05/05/08","11:12:20",166.000,"cc",28331.967,6,0.100,136.000,0.200,28.000,0.300,2.000,0.500,0,1.000,0,5.000,0
"05/05/08","11:12:26",190.000,"cc",28316.988,6,0.100,158.000,0.200,31.000,0.300,1.000,0.500,0,1.000,0,5.000,0
"05/05/08","11:12:32",150.000,"cc",28338.609,6,0.100,124.000,0.200,26.000,0.300,0,0.500,0,1.000,0,5.000,0
"05/05/08","11:12:38",166.000,"cc",28322.279,6,0.100,132.000,0.200,33.000,0.300,1.000,0.500,0,1.000,0,5.000,0
"05/05/08","11:12:44",171.000,"cc",28309.500,6,0.100,140.000,0.200,27.000,0.300,4.000,0.500,0,1.000,0,5.000,0
"05/05/08","11:12:50",1147.000,"cc",28249.342,6,0.100,438.000,0.200,160.000,0.300,101.000,0.500,114.000,1.000,331.000,5.000,3.000
"05/05/08","11:12:56",6035.000,"cc",28196.641,6,0.100,1836.000,0.200,813.000,0.300,649.000,0.500,822.000,1.000,1892.000,5.000,23.000
"05/05/08","11:13:02",7714.000,"cc",28231.861,6,0.100,2407.000,0.200,1018.000,0.300,772.000,0.500,1163.000,1.000,2303.000,5.000,51.000
"05/05/08","11:13:08",6136.000,"cc",28270.336,6,0.100,1760.000,0.200,777.000,0.300,592.000,0.500,897.000,1.000,2092.000,5.000,18.000
"05/05/08","11:13:14",9065.000,"cc",28045.734,6,0.100,3685.000,0.200,1459.000,0.300,925.000,0.500,970.000,1.000,1986.000,5.000,40.000
"05/05/08","11:13:20",7587.000,"cc",28092.633,6,0.100,2217.000,0.200,986.000,0.300,807.000,0.500,1084.000,1.000,2467.000,5.000,26.000
"05/05/08","11:13:26",7112.000,"cc",28607.535,6,0.100,2071.000,0.200,893.000,0.300,742.000,0.500,1081.000,1.000,2301.000,5.000,24.000
"05/05/08","11:13:32",6607.000,"cc",28469.049,6,0.100,1815.000,0.200,761.000,0.300,617.000,0.500,997.000,1.000,2403.000,5.000,14.000
"05/05/08","11:13:38",7083.000,"cc",28321.322,6,0.100,2055.000,0.200,831.000,0.300,704.000,0.500,1055.000,1.000,2409.000,5.000,29.000
"05/05/08","11:13:44",6218.000,"cc",28310.221,6,0.100,1903.000,0.200,804.000,0.300,632.000,0.500,869.000,1.000,1986.000,5.000,24.000
"05/05/08","11:13:50",8390.000,"cc",28272.373,6,0.100,2504.000,0.200,1083.000,0.300,887.000,0.500,1164.000,1.000,2733.000,5.000,19.000
"05/05/08","11:13:56",8657.000,"cc",28300.162,6,0.100,2495.000,0.200,1082.000,0.300,917.000,0.500,1314.000,1.000,2818.000,5.000,31.000
"05/05/08","11:14:02",7556.000,"cc",28302.320,6,0.100,2128.000,0.200,832.000,0.300,749.000,0.500,1174.000,1.000,2639.000,5.000,34.000
"05/05/08","11:14:08",9375.000,"cc",28327.690,6,0.100,2621.000,0.200,1084.000,0.300,917.000,0.500,1422.000,1.000,3299.000,5.000,32.000
"05/05/08","11:14:14",8457.000,"cc",28267.332,6,0.100,2364.000,0.200,1017.000,0.300,877.000,0.500,1246.000,1.000,2926.000,5.000,27.000
"05/05/08","11:14:20",7442.000,"cc",28347.457,6,0.100,2187.000,0.200,874.000,0.300,776.000,0.500,1133.000,1.000,2450.000,5.000,22.000
"05/05/08","11:14:26",8192.000,"cc",28347.930,6,0.100,2284.000,0.200,961.000,0.300,890.000,0.500,1204.000,1.000,2821.000,5.000,32.000
"05/05/08","11:14:32",8690.000,"cc",28342.027,6,0.100,2422.000,0.200,963.000,0.300,841.000,0.500,1212.000,1.000,3221.000,5.000,31.000
"05/05/08","11:14:38",6121.000,"cc",28355.434,6,0.100,1579.000,0.200,705.000,0.300,657.000,0.500,968.000,1.000,2193.000,5.000,19.000
"05/05/08","11:14:44",7055.000,"cc",28162.127,6,0.100,1894.000,0.200,766.000,0.300,714.000,0.500,1032.000,1.000,2625.000,5.000,24.000
"05/05/08","11:14:50",8652.000,"cc",28377.207,6,0.100,2351.000,0.200,987.000,0.300,929.000,0.500,1267.000,1.000,3079.000,5.000,39.000
"05/05/08","11:14:56",6731.000,"cc",28373.496,6,0.100,1845.000,0.200,742.000,0.300,651.000,0.500,1001.000,1.000,2465.000,5.000,27.000
"05/05/08","11:15:02",7895.000,"cc",28337.545,6,0.100,2068.000,0.200,829.000,0.300,830.000,0.500,1177.000,1.000,2968.000,5.000,23.000
"05/05/08","11:15:08",6315.000,"cc",28332.680,6,0.100,1682.000,0.200,746.000,0.300,610.000,0.500,948.000,1.000,2305.000,5.000,24.000
"05/05/08","11:15:14",7189.000,"cc",28363.539,6,0.100,2000.000,0.200,827.000,0.300,793.000,0.500,1076.000,1.000,2465.000,5.000,28.000
"05/05/08","11:15:20",9668.000,"cc",28307.643,6,0.100,2601.000,0.200,1099.000,0.300,984.000,0.500,1504.000,1.000,3433.000,5.000,47.000
"05/05/08","11:15:26",4775.000,"cc",28271.041,6,0.100,1338.000,0.200,574.000,0.300,530.000,0.500,739.000,1.000,1585.000,5.000,9.000
"05/05/08","11:15:32",5136.000,"cc",28339.139,6,0.100,1412.000,0.200,618.000,0.300,511.000,0.500,808.000,1.000,1777.000,5.000,10.000
"05/05/08","11:15:38",6781.000,"cc",28275.063,6,0.100,2054.000,0.200,811.000,0.300,717.000,0.500,1008.000,1.000,2154.000,5.000,37.000
"05/05/08","11:15:44",7437.000,"cc",28332.430,6,0.100,1906.000,0.200,826.000,0.300,785.000,0.500,1224.000,1.000,2669.000,5.000,27.000
"05/05/08","11:15:50",5959.000,"cc",28439.772,6,0.100,1526.000,0.200,704.000,0.300,608.000,0.500,1010.000,1.000,2096.000,5.000,15.000
"05/05/08","11:15:56",7612.000,"cc",28248.471,6,0.100,1904.000,0.200,791.000,0.300,726.000,0.500,1304.000,1.000,2852.000,5.000,35.000
"05/05/08","11:16:02",4030.000,"cc",28269.170,6,0.100,1179.000,0.200,524.000,0.300,406.000,0.500,615.000,1.000,1295.000,5.000,11.000
"05/05/08","11:16:08",6587.000,"cc",28397.654,6,0.100,1718.000,0.200,732.000,0.300,703.000,0.500,1057.000,1.000,2352.000,5.000,25.000
"05/05/08","11:16:14",4833.000,"cc",28318.688,6,0.100,1410.000,0.200,533.000,0.300,470.000,0.500,783.000,1.000,1622.000,5.000,15.000
"05/05/08","11:16:20",3787.000,"cc",28307.135,6,0.100,1059.000,0.200,458.000,0.300,431.000,0.500,574.000,1.000,1264.000,5.000,1.000
"05/05/08","11:16:26",4197.000,"cc",28325.293,6,0.100,1201.000,0.200,554.000,0.300,423.000,0.500,643.000,1.000,1365.000,5.000,11.000
"05/05/08","11:16:32",3710.000,"cc",27871.272,6,0.100,1601.000,0.200,410.000,0.300,351.000,0.500,439.000,1.000,905.000,5.000,4.000
"05/05/08","11:16:38",3184.000,"cc",27373.240,6,0.100,909.000,0.200,418.000,0.300,326.000,0.500,534.000,1.000,994.000,5.000,3.000
"05/05/08","11:16:44",3233.000,"cc",27785.248,6,0.100,1031.000,0.200,409.000,0.300,339.000,0.500,452.000,1.000,998.000,5.000,4.000
"05/05/08","11:16:50",6303.000,"cc",27657.205,6,0.100,2541.000,0.200,980.000,0.300,627.000,0.500,714.000,1.000,1408.000,5.000,33.000
"05/05/08","11:16:56",3407.000,"cc",27362.250,6,0.100,1076.000,0.200,409.000,0.300,335.000,0.500,532.000,1.000,1041.000,5.000,14.000
"05/05/08","11:17:02",3692.000,"cc",28537.178,6,0.100,1058.000,0.200,406.000,0.300,388.000,0.500,535.000,1.000,1297.000,5.000,8.000
"05/05/08","11:17:08",6741.000,"cc",27414.154,6,0.100,3238.000,0.200,910.000,0.300,528.000,0.500,686.000,1.000,1351.000,5.000,28.000
"05/05/08","11:17:14",2494.000,"cc",26917.359,6,0.100,787.000,0.200,304.000,0.300,238.000,0.500,374.000,1.000,785.000,5.000,6.000
"05/05/08","11:17:20",1278.000,"cc",27222.326,6,0.100,484.000,0.200,193.000,0.300,123.000,0.500,154.000,1.000,324.000,5.000,0
"05/05/08","11:17:26",3741.000,"cc",27291.268,6,0.100,1078.000,0.200,472.000,0.300,379.000,0.500,578.000,1.000,1227.000,5.000,7.000
"05/05/08","11:17:32",754.000,"cc",27603.912,6,0.100,354.000,0.200,102.000,0.300,59.000,0.500,71.000,1.000,166.000,5.000,2.000
"05/05/08","11:17:38",188.000,"cc",27995.779,6,0.100,131.000,0.200,33.000,0.300,8.000,0.500,6.000,1.000,10.000,5.000,0
"05/05/08","11:17:44",460.000,"cc",28433.951,6,0.100,207.000,0.200,68.000,0.300,26.000,0.500,50.000,1.000,106.000,5.000,3.000
"05/05/08","11:17:50",199.000,"cc",28780.039,6,0.100,152.000,0.200,41.000,0.300,4.000,0.500,0,1.000,2.000,5.000,0
"05/05/08","11:17:56",757.000,"cc",28828.738,6,0.100,274.000,0.200,112.000,0.300,65.000,0.500,97.000,1.000,207.000,5.000,2.000
"05/05/08","11:18:02",3734.000,"cc",28755.836,6,0.100,1644.000,0.200,455.000,0.300,337.000,0.500,405.000,1.000,840.000,5.000,53.000
"05/05/08","11:18:08",421.000,"cc",28720.170,6,0.100,289.000,0.200,78.000,0.300,34.000,0.500,14.000,1.000,6.000,5.000,0
"05/05/08","11:18:14",6289.000,"cc",27684.164,6,0.100,4580.000,0.200,1068.000,0.300,384.000,0.500,190.000,1.000,46.000,5.000,21.000
"05/05/08","11:18:20",7446.000,"cc",26318.043,6,0.100,5562.000,0.200,1058.000,0.300,424.000,0.500,278.000,1.000,71.000,5.000,53.000
"05/05/08","11:18:26",1133.000,"cc",26391.998,6,0.100,623.000,0.200,231.000,0.300,98.000,0.500,75.000,1.000,106.000,5.000,0
"05/05/08","11:18:32",336.000,"cc",27189.084,6,0.100,237.000,0.200,62.000,0.300,17.000,0.500,15.000,1.000,5.000,5.000,0
"05/05/08","11:18:38",203.000,"cc",27278.014,6,0.100,142.000,0.200,47.000,0.300,4.000,0.500,0,1.000,10.000,5.000,0
"05/05/08","11:18:44",395.000,"cc",27292.594,6,0.100,211.000,0.200,58.000,0.300,18.000,0.500,24.000,1.000,80.000,5.000,4.000
"05/05/08","11:18:50",198.000,"cc",27204.588,6,0.100,153.000,0.200,38.000,0.300,4.000,0.500,1.000,1.000,1.000,5.000,1.000
"05/05/08","11:18:56",168.000,"cc",27279.889,6,0.100,139.000,0.200,28.000,0.300,0,0.500,1.000,1.000,0,5.000,0
"05/05/08","11:19:02",173.000,"cc",27343.815,6,0.100,140.000,0.200,29.000,0.300,2.000,0.500,1.000,1.000,1.000,5.000,0
"05/05/08","11:19:08",203.000,"cc",27430.395,6,0.100,141.000,0.200,39.000,0.300,1.000,0.500,6.000,1.000,16.000,5.000,0
"05/05/08","11:19:14",210.000,"cc",27456.012,6,0.100,174.000,0.200,36.000,0.300,0,0.500,0,1.000,0,5.000,0